VOZ1846 YPPD-YPPH

Flight info

Callsign VOZ1846
Flight time N/A
Altitude 34000
Route PD Q9 AVPAL Q38 JULIM JULI8A/21
Aircraft A320/M-SDE3FGHIRWY/LB1

Departure

Time N/A
Airport Port Hedland International Airport (YPPD)

Arrival

Time 2026-05-06 12:56
Airport Perth International Airport (YPPH)
Time Latitude Longitude Altitude Speed Heading
2026-05-06 12:44 -31.14675 116.40032 19396 ft 366 kts 198°
2026-05-06 12:44 -31.16352 116.39404 19438 ft 367 kts 197°
2026-05-06 12:45 -31.18784 116.38464 19401 ft 367 kts 198°
2026-05-06 12:45 -31.21204 116.37503 19403 ft 368 kts 198°
2026-05-06 12:45 -31.25971 116.35586 18537 ft 361 kts 198°
2026-05-06 12:46 -31.28341 116.34641 18059 ft 359 kts 198°
2026-05-06 12:46 -31.30695 116.33711 17582 ft 356 kts 198°
2026-05-06 12:46 -31.33033 116.32793 17100 ft 353 kts 198°
2026-05-06 12:46 -31.35359 116.31880 16616 ft 351 kts 198°
2026-05-06 12:47 -31.37665 116.30971 16132 ft 349 kts 198°
2026-05-06 12:47 -31.39957 116.30066 15653 ft 346 kts 198°
2026-05-06 12:47 -31.42197 116.29043 15180 ft 345 kts 206°
2026-05-06 12:47 -31.44268 116.27713 15017 ft 333 kts 208°
2026-05-06 12:48 -31.46265 116.26430 14888 ft 322 kts 207°
2026-05-06 12:48 -31.48199 116.25195 14749 ft 312 kts 207°
2026-05-06 12:48 -31.50086 116.23991 14474 ft 307 kts 207°
2026-05-06 12:48 -31.51959 116.22795 14138 ft 305 kts 207°
2026-05-06 12:49 -31.53817 116.21607 13788 ft 304 kts 207°
2026-05-06 12:49 -31.55666 116.20426 13433 ft 302 kts 207°
2026-05-06 12:49 -31.57509 116.19249 13084 ft 300 kts 207°
2026-05-06 12:49 -31.59339 116.18077 12734 ft 299 kts 207°
2026-05-06 12:50 -31.61150 116.16916 12550 ft 292 kts 207°
2026-05-06 12:50 -31.62888 116.15801 12336 ft 278 kts 207°
2026-05-06 12:50 -31.64569 116.14721 11877 ft 273 kts 207°
2026-05-06 12:50 -31.66229 116.13654 11357 ft 270 kts 207°
2026-05-06 12:51 -31.67871 116.12599 10819 ft 268 kts 207°
2026-05-06 12:51 -31.69484 116.11563 10283 ft 267 kts 207°
2026-05-06 12:51 -31.71112 116.10515 9747 ft 266 kts 207°
2026-05-06 12:51 -31.72724 116.09479 9448 ft 262 kts 207°
2026-05-06 12:52 -31.74337 116.08437 9395 ft 265 kts 210°
2026-05-06 12:52 -31.75748 116.07109 9181 ft 253 kts 228°
2026-05-06 12:52 -31.76794 116.05524 8935 ft 240 kts 232°
2026-05-06 12:52 -31.77794 116.03974 8502 ft 236 kts 232°
2026-05-06 12:53 -31.78785 116.02442 8022 ft 234 kts 232°
2026-05-06 12:53 -31.79864 116.01030 7520 ft 231 kts 215°
2026-05-06 12:53 -31.81283 116.00204 7032 ft 227 kts 193°
2026-05-06 12:53 -31.82815 115.99767 6517 ft 226 kts 192°
2026-05-06 12:54 -31.84346 115.99328 6044 ft 225 kts 192°
2026-05-06 12:54 -31.85305 115.99056 3772 ft 0 kts 193°
2026-05-06 12:54 -31.86346 115.98747 1793 ft 218 kts 193°
2026-05-06 12:54 -31.87848 115.98229 746 ft 226 kts 197°
2026-05-06 12:55 -31.89297 115.97842 588 ft 202 kts 190°
2026-05-06 12:55 -31.90581 115.97506 507 ft 176 kts 195°
2026-05-06 12:55 -31.91677 115.97177 298 ft 152 kts 193°
2026-05-06 12:55 -31.92635 115.96910 116 ft 134 kts 194°
2026-05-06 12:56 -31.93448 115.96676 55 ft 91 kts 194°
2026-05-06 12:56 -31.93774 115.96580 57 ft 16 kts 194°
2026-05-06 12:56 -31.93830 115.96564 62 ft 0 kts 194°
2026-05-06 12:56 -31.93839 115.96561 60 ft 2 kts 194°
2026-05-06 12:57 -31.93859 115.96555 56 ft 4 kts 194°
2026-05-06 12:57 -31.93868 115.96552 62 ft 0 kts 194°
2026-05-06 12:57 -31.93869 115.96552 62 ft 0 kts 194°
2026-05-06 12:58 -31.93883 115.96548 62 ft 3 kts 194°